Regional Weather Roundup
Issued by NWS

Home | Current Version | Previous Version | Text Only | Print | Product List | Glossary On
Versions: 1 2 3 4 5 6 7 8 9 10 11 12 13 14 15 16 17 18 19 20 21 22 23 24 25 26 27 28 29 30 31 32 33 34 35 36 37 38 39 40 41 42 43 44 45 46 47 48 49 50
000
ASUS44 KOUN 300510
RWROK

WEATHER ROUNDUP FOR OKLAHOMA
NATIONAL WEATHER SERVICE NORMAN OK
1100 PM CST THU JAN 29 2015

NOTE: "FAIR" INDICATES FEW OR NO CLOUDS BELOW 12,000 FEET WITH NO
      SIGNIFICANT WEATHER AND/OR OBSTRUCTIONS TO VISIBILITY.

OKZ001>007-009>012-014-015-017-300600-
NORTHWEST OKLAHOMA AND THE PANHANDLE

CITY           SKY/WX    TMP DP  RH WIND       PRES   REMARKS
GAGE           MOCLDY    34  24  67 NE6       30.51F WCI  29
ENID/WOODRING  MOCLDY    32  27  80 N7        30.52R WCI  26
$$

OKZ016-021>023-033>039-044-045-300600-
SOUTHWEST OKLAHOMA

CITY           SKY/WX    TMP DP  RH WIND       PRES   REMARKS
LAWTON/REGL    CLOUDY    45  29  53 N8        30.51S
LAWTON/FT SILL CLOUDY    43  30  61 N7        30.50S
FREDERICK      CLOUDY    44  31  60 NE5       30.49R
CLINTON        CLOUDY    38  29  70 N7        30.52F WCI  33
HOBART         CLOUDY    41  29  62 NE8       30.52R
ALTUS AFB      PTCLDY    41  31  66 NE5       30.52R
$$

OKZ018>020-024>031-300600-
CENTRAL OKLAHOMA

CITY           SKY/WX    TMP DP  RH WIND       PRES   REMARKS
OKLAHOMA CITY  CLOUDY    44  27  51 NE10      30.52R
OKC/WILEY POST CLOUDY    37  28  70 N7        30.54R WCI  32
OKC/TINKER AFB CLOUDY    42  28  57 NE9       30.52R
STILLWATER     MOCLDY    32  25  75 N6        30.53R WCI  26
GUTHRIE        CLOUDY    34  27  75 CALM      30.54R
$$

OKZ008-013-054>072-300600-
NORTHEAST OKLAHOMA

CITY           SKY/WX    TMP DP  RH WIND       PRES   REMARKS
TULSA          MOCLDY    34  28  79 N7        30.53R WCI  28
TULSA/JONES    CLEAR     40  29  64 N7        30.53R
PONCA CITY     PTCLDY    28  22  78 NE3       30.53S
BARTLESVILLE   CLEAR     27  23  85 CALM      30.55R
MUSKOGEE       PTCLDY    36  28  73 N8        30.53R WCI  30
$$

OKZ032-040>043-046>053-073>077-300600-
SOUTH CENTRAL/SOUTHEAST OKLAHOMA

CITY           SKY/WX    TMP DP  RH WIND       PRES   REMARKS
ARDMORE/DWNTWN CLOUDY    45  30  57 NE12      30.49S
MCALESTER      MOCLDY    44  31  60 NE8       30.50R
$$



USA.gov is the U.S. government's official web portal to all federal, state and local government web resources and services.